Time,TemperatureF,DewpointF,PressureIn,WindDirection,WindDirectionDegrees,WindSpeedMPH,WindSpeedGustMPH,Humidity,HourlyPrecipIn,Conditions,Clouds,dailyrainin,SoftwareType,DateUTC
2013-11-03 00:00:00,29.7,18.6,29.98,NNE,14,1.0,5.0,63,0.00,RA,OVC,0.00,WeatherDisplay:10.37,2013-11-03 04:00:00,
2013-11-03 00:05:00,29.6,18.6,29.99,NE,43,2.0,5.0,63,0.00,RA,OVC,0.00,WeatherDisplay:10.37,2013-11-03 04:05:00,
2013-11-03 00:10:00,29.6,18.5,29.99,ENE,64,0.0,3.0,63,0.00,BKN,OVC,0.00,WeatherDisplay:10.37,2013-11-03 04:10:00,
2013-11-03 00:15:00,29.5,18.8,29.99,NE,49,0.0,5.0,64,0.00,SCT,OVC,0.00,WeatherDisplay:10.37,2013-11-03 04:15:00,
2013-11-03 00:20:00,29.5,18.4,29.99,NNE,33,0.0,4.0,63,0.00,SCT,OVC,0.00,WeatherDisplay:10.37,2013-11-03 04:20:00,
2013-11-03 00:25:00,29.3,19.0,29.99,NNE,27,0.0,2.0,65,0.00,SCT,OVC,0.00,WeatherDisplay:10.37,2013-11-03 04:25:00,
2013-11-03 00:30:00,29.1,18.8,29.99,NE,35,0.0,2.0,65,0.00,SCT,OVC,0.00,WeatherDisplay:10.37,2013-11-03 04:30:00,
2013-11-03 00:35:00,28.9,18.6,29.99,ENE,61,0.0,1.0,65,0.00,SCT,OVC,0.00,WeatherDisplay:10.37,2013-11-03 04:35:00,
2013-11-03 00:40:00,28.9,18.2,30.00,ENE,59,0.0,4.0,64,0.00,SCT,OVC,0.00,WeatherDisplay:10.37,2013-11-03 04:40:00,
2013-11-03 00:45:00,28.9,18.2,30.00,NE,43,1.0,5.0,64,0.00,SCT,OVC,0.00,WeatherDisplay:10.37,2013-11-03 04:45:00,
2013-11-03 00:50:00,28.9,18.2,30.00,NE,38,2.0,4.0,64,0.00,SCT,OVC,0.00,WeatherDisplay:10.37,2013-11-03 04:50:00,
2013-11-03 00:55:00,28.9,18.6,30.00,NNE,31,1.0,5.0,65,0.00,SCT,OVC,0.00,WeatherDisplay:10.37,2013-11-03 04:55:00,
2013-11-03 01:05:00,28.8,18.9,30.01,NNE,20,0.0,2.0,66,0.00,SCT,OVC,0.00,WeatherDisplay:10.37,2013-11-03 05:05:00,
2013-11-03 01:10:00,28.7,18.8,30.01,NNE,33,0.0,2.0,66,0.00,SCT,OVC,0.00,WeatherDisplay:10.37,2013-11-03 05:10:00,
2013-11-03 01:15:00,28.6,18.3,30.01,NE,34,0.0,0.0,65,0.00,FEW,OVC,0.00,WeatherDisplay:10.37,2013-11-03 05:15:00,
2013-11-03 01:20:00,28.4,18.5,30.01,NE,34,0.0,1.0,66,0.00,FEW,OVC,0.00,WeatherDisplay:10.37,2013-11-03 05:20:00,
2013-11-03 01:25:00,28.4,18.5,30.02,NE,34,1.0,5.0,66,0.00,FEW,OVC,0.00,WeatherDisplay:10.37,2013-11-03 05:25:00,
2013-11-03 01:30:00,28.6,18.3,30.02,ENE,58,1.0,3.0,65,0.00,FEW,OVC,0.00,WeatherDisplay:10.37,2013-11-03 05:30:00,
2013-11-03 01:35:00,28.5,18.6,30.02,East,85,0.0,0.0,66,0.00,FEW,OVC,0.00,WeatherDisplay:10.37,2013-11-03 05:35:00,
2013-11-03 01:40:00,28.3,18.4,30.03,East,79,0.0,1.0,66,0.00,FEW,OVC,0.00,WeatherDisplay:10.37,2013-11-03 05:40:00,
2013-11-03 01:45:00,28.2,18.6,30.02,ENE,66,0.0,0.0,67,0.00,FEW,OVC,0.00,WeatherDisplay:10.37,2013-11-03 05:45:00,
2013-11-03 01:50:00,28.1,18.5,30.02,NNE,29,0.0,0.0,67,0.00,FEW,OVC,0.00,WeatherDisplay:10.37,2013-11-03 05:50:00,
2013-11-03 01:55:00,28.0,18.5,30.03,North,355,0.0,0.0,67,0.00,FEW,OVC,0.00,WeatherDisplay:10.37,2013-11-03 05:55:00,
2013-11-03 01:00:00,27.9,18.4,30.03,North,354,1.0,3.0,67,0.00,FEW,OVC,0.00,WeatherDisplay:10.37,2013-11-03 06:00:00,
2013-11-03 01:10:00,27.7,18.5,30.03,North,351,0.0,3.0,68,0.00,FEW,OVC,0.00,WeatherDisplay:10.37,2013-11-03 06:10:00,
2013-11-03 01:15:00,27.6,18.8,30.03,North,11,0.0,1.0,69,0.00,FEW,OVC,0.00,WeatherDisplay:10.37,2013-11-03 06:15:00,
2013-11-03 01:20:00,27.4,18.6,30.03,NNE,32,0.0,2.0,69,0.00,FEW,OVC,0.00,WeatherDisplay:10.37,2013-11-03 06:20:00,
2013-11-03 01:25:00,27.4,18.9,30.03,NNE,18,0.0,1.0,70,0.00,FEW,OVC,0.00,WeatherDisplay:10.37,2013-11-03 06:25:00,
2013-11-03 01:30:00,27.3,18.8,30.04,North,355,0.0,1.0,70,0.00,FEW,OVC,0.00,WeatherDisplay:10.37,2013-11-03 06:30:00,
2013-11-03 01:35:00,27.1,18.9,30.04,North,355,0.0,0.0,71,0.00,FEW,OVC,0.00,WeatherDisplay:10.37,2013-11-03 06:35:00,
2013-11-03 01:40:00,27.0,18.8,30.04,North,355,0.0,0.0,71,0.00,FEW,OVC,0.00,WeatherDisplay:10.37,2013-11-03 06:40:00,
2013-11-03 01:45:00,26.8,19.0,30.04,North,355,0.0,0.0,72,0.00,FEW,OVC,0.00,WeatherDisplay:10.37,2013-11-03 06:45:00,
2013-11-03 01:50:00,26.8,18.7,30.05,North,355,0.0,0.0,71,0.00,FEW,OVC,0.00,WeatherDisplay:10.37,2013-11-03 06:50:00,
2013-11-03 01:55:00,26.7,18.9,30.05,North,355,0.0,0.0,72,0.00,FEW,OVC,0.00,WeatherDisplay:10.37,2013-11-03 06:55:00,
2013-11-03 02:00:00,26.7,19.5,30.05,North,355,0.0,0.0,74,0.00,FEW,OVC,0.00,WeatherDisplay:10.37,2013-11-03 07:00:00,
2013-11-03 02:05:00,26.7,19.5,30.05,North,355,0.0,0.0,74,0.00,FEW,OVC,0.00,WeatherDisplay:10.37,2013-11-03 07:05:00,
2013-11-03 02:10:00,26.6,19.7,30.06,North,355,0.0,0.0,75,0.00,FEW,OVC,0.00,WeatherDisplay:10.37,2013-11-03 07:10:00,
2013-11-03 02:15:00,26.5,19.6,30.06,North,355,0.0,0.0,75,0.00,SKC,OVC,0.00,WeatherDisplay:10.37,2013-11-03 07:15:00,
2013-11-03 02:20:00,26.4,19.5,30.06,North,355,0.0,0.0,75,0.00,SKC,OVC,0.00,WeatherDisplay:10.37,2013-11-03 07:20:00,
2013-11-03 02:25:00,26.3,19.8,30.06,North,355,0.0,0.0,76,0.00,SKC,OVC,0.00,WeatherDisplay:10.37,2013-11-03 07:25:00,
2013-11-03 02:30:00,26.1,19.6,30.06,North,355,0.0,0.0,76,0.00,SKC,OVC,0.00,WeatherDisplay:10.37,2013-11-03 07:30:00,
2013-11-03 02:35:00,26.0,19.4,30.06,North,355,0.0,0.0,76,0.00,SKC,OVC,0.00,WeatherDisplay:10.37,2013-11-03 07:35:00,
2013-11-03 02:40:00,25.8,19.6,30.07,North,355,0.0,0.0,77,0.00,SKC,OVC,0.00,WeatherDisplay:10.37,2013-11-03 07:40:00,
2013-11-03 02:45:00,25.6,19.4,30.07,North,355,0.0,0.0,77,0.00,SKC,OVC,0.00,WeatherDisplay:10.37,2013-11-03 07:45:00,
2013-11-03 02:50:00,25.4,19.5,30.07,North,355,0.0,0.0,78,0.00,SKC,OVC,0.00,WeatherDisplay:10.37,2013-11-03 07:50:00,
2013-11-03 02:55:00,25.2,19.3,30.07,North,355,0.0,0.0,78,0.00,SKC,OVC,0.00,WeatherDisplay:10.37,2013-11-03 07:55:00,
2013-11-03 03:00:00,25.0,19.4,30.08,North,355,0.0,0.0,79,0.00,SKC,OVC,0.00,WeatherDisplay:10.37,2013-11-03 08:00:00,
2013-11-03 03:05:00,24.8,19.2,30.08,North,355,0.0,0.0,79,0.00,SKC,OVC,0.00,WeatherDisplay:10.37,2013-11-03 08:05:00,
2013-11-03 03:10:00,24.7,19.4,30.08,North,355,0.0,0.0,80,0.00,SKC,OVC,0.00,WeatherDisplay:10.37,2013-11-03 08:10:00,
2013-11-03 03:15:00,24.5,19.2,30.08,North,355,0.0,0.0,80,0.00,SKC,OVC,0.00,WeatherDisplay:10.37,2013-11-03 08:15:00,
2013-11-03 03:20:00,24.3,19.3,30.08,North,355,0.0,0.0,81,0.00,SKC,OVC,0.00,WeatherDisplay:10.37,2013-11-03 08:20:00,
2013-11-03 03:25:00,24.2,19.2,30.09,North,355,0.0,0.0,81,0.00,SKC,OVC,0.00,WeatherDisplay:10.37,2013-11-03 08:25:00,
2013-11-03 03:30:00,24.1,19.4,30.09,North,355,0.0,0.0,82,0.00,SKC,OVC,0.00,WeatherDisplay:10.37,2013-11-03 08:30:00,
2013-11-03 03:35:00,23.9,19.2,30.09,North,355,0.0,0.0,82,0.00,SKC,OVC,0.00,WeatherDisplay:10.37,2013-11-03 08:35:00,
2013-11-03 03:40:00,23.8,19.1,30.09,North,355,0.0,0.0,82,0.00,SKC,OVC,0.00,WeatherDisplay:10.37,2013-11-03 08:40:00,
2013-11-03 03:45:00,23.7,19.0,30.09,North,355,0.0,0.0,82,0.00,SKC,OVC,0.00,WeatherDisplay:10.37,2013-11-03 08:45:00,
2013-11-03 03:50:00,23.6,19.2,30.10,North,355,0.0,0.0,83,0.00,SKC,OVC,0.00,WeatherDisplay:10.37,2013-11-03 08:50:00,
2013-11-03 03:55:00,23.4,19.0,30.10,North,355,0.0,0.0,83,0.00,SKC,OVC,0.00,WeatherDisplay:10.37,2013-11-03 08:55:00,
2013-11-03 04:00:00,23.3,18.9,30.10,North,355,0.0,0.0,83,0.00,SKC,OVC,0.00,WeatherDisplay:10.37,2013-11-03 09:00:00,
2013-11-03 04:10:00,23.0,18.9,30.11,North,355,0.0,0.0,84,0.00,SKC,OVC,0.00,WeatherDisplay:10.37,2013-11-03 09:10:00,
2013-11-03 04:15:00,22.9,18.8,30.11,North,355,0.0,0.0,84,0.00,SKC,OVC,0.00,WeatherDisplay:10.37,2013-11-03 09:15:00,
2013-11-03 04:20:00,22.8,18.7,30.11,North,355,0.0,0.0,84,0.00,SKC,OVC,0.00,WeatherDisplay:10.37,2013-11-03 09:20:00,
2013-11-03 04:25:00,22.7,18.6,30.11,North,355,0.0,0.0,84,0.00,SKC,OVC,0.00,WeatherDisplay:10.37,2013-11-03 09:25:00,
2013-11-03 04:30:00,22.6,18.5,30.12,North,355,0.0,0.0,84,0.00,SKC,OVC,0.00,WeatherDisplay:10.37,2013-11-03 09:30:00,
2013-11-03 04:35:00,22.5,18.7,30.12,North,355,0.0,0.0,85,0.00,SKC,OVC,0.00,WeatherDisplay:10.37,2013-11-03 09:35:00,
2013-11-03 04:40:00,22.4,18.6,30.13,North,355,0.0,0.0,85,0.00,SKC,OVC,0.00,WeatherDisplay:10.37,2013-11-03 09:40:00,
2013-11-03 04:45:00,22.4,18.5,30.13,North,355,0.0,0.0,85,0.00,SKC,OVC,0.00,WeatherDisplay:10.37,2013-11-03 09:45:00,
2013-11-03 04:50:00,22.3,18.7,30.13,North,355,0.0,0.0,86,0.00,SKC,OVC,0.00,WeatherDisplay:10.37,2013-11-03 09:50:00,
2013-11-03 04:55:00,22.2,18.6,30.13,North,355,0.0,0.0,86,0.00,SKC,OVC,0.00,WeatherDisplay:10.37,2013-11-03 09:55:00,
2013-11-03 05:00:00,22.1,18.6,30.14,North,355,0.0,0.0,86,0.00,SKC,OVC,0.00,WeatherDisplay:10.37,2013-11-03 10:00:00,
2013-11-03 05:05:00,22.0,18.5,30.14,North,355,0.0,0.0,86,0.00,SKC,OVC,0.00,WeatherDisplay:10.37,2013-11-03 10:05:00,
2013-11-03 05:10:00,22.0,18.7,30.14,North,355,0.0,0.0,87,0.00,SKC,OVC,0.00,WeatherDisplay:10.37,2013-11-03 10:10:00,
2013-11-03 05:15:00,21.9,18.6,30.15,North,355,0.0,0.0,87,0.00,SKC,OVC,0.00,WeatherDisplay:10.37,2013-11-03 10:15:00,
2013-11-03 05:20:00,21.9,18.6,30.15,North,355,0.0,0.0,87,0.00,SKC,OVC,0.00,WeatherDisplay:10.37,2013-11-03 10:20:00,
2013-11-03 05:25:00,21.9,18.6,30.15,North,355,0.0,0.0,87,0.00,SKC,OVC,0.00,WeatherDisplay:10.37,2013-11-03 10:25:00,
2013-11-03 05:30:00,21.8,18.5,30.15,North,355,0.0,0.0,87,0.00,SKC,OVC,0.00,WeatherDisplay:10.37,2013-11-03 10:30:00,
2013-11-03 05:35:00,21.8,18.5,30.16,North,355,0.0,0.0,87,0.00,SKC,OVC,0.00,WeatherDisplay:10.37,2013-11-03 10:35:00,
2013-11-03 05:45:00,21.7,18.7,30.16,NNW,344,0.0,0.0,88,0.00,SKC,OVC,0.00,WeatherDisplay:10.37,2013-11-03 10:45:00,
2013-11-03 05:50:00,21.7,18.7,30.16,NNW,340,0.0,0.0,88,0.00,SKC,OVC,0.00,WeatherDisplay:10.37,2013-11-03 10:50:00,
2013-11-03 05:55:00,21.7,18.7,30.17,NNW,340,0.0,0.0,88,0.00,SKC,OVC,0.00,WeatherDisplay:10.37,2013-11-03 10:55:00,
2013-11-03 06:00:00,21.7,18.7,30.17,NNW,340,0.0,2.0,88,0.00,SKC,OVC,0.00,WeatherDisplay:10.37,2013-11-03 11:00:00,
2013-11-03 06:05:00,21.7,19.0,30.17,NNW,340,0.0,0.0,89,0.00,SKC,OVC,0.00,WeatherDisplay:10.37,2013-11-03 11:05:00,
2013-11-03 06:10:00,21.8,19.1,30.18,NNW,340,0.0,0.0,89,0.00,SKC,OVC,0.00,WeatherDisplay:10.37,2013-11-03 11:10:00,
2013-11-03 06:15:00,21.8,19.1,30.18,NNW,340,0.0,0.0,89,0.00,FEW,OVC,0.00,WeatherDisplay:10.37,2013-11-03 11:15:00,
2013-11-03 06:20:00,21.8,19.1,30.18,NNW,340,0.0,0.0,89,0.00,FEW,OVC,0.00,WeatherDisplay:10.37,2013-11-03 11:20:00,
2013-11-03 06:25:00,21.8,19.0,30.19,NNW,340,0.0,0.0,89,0.00,FEW,OVC,0.00,WeatherDisplay:10.37,2013-11-03 11:25:00,
2013-11-03 06:30:00,21.7,19.0,30.19,NNW,340,0.0,0.0,89,0.00,FEW,OVC,0.00,WeatherDisplay:10.37,2013-11-03 11:30:00,
2013-11-03 06:35:00,21.7,19.0,30.19,NNW,340,0.0,0.0,89,0.00,FEW,OVC,0.00,WeatherDisplay:10.37,2013-11-03 11:35:00,
2013-11-03 06:40:00,21.7,19.0,30.20,NNW,340,0.0,0.0,89,0.00,FEW,OVC,0.00,WeatherDisplay:10.37,2013-11-03 11:40:00,
2013-11-03 06:45:00,21.7,19.0,30.20,NNW,340,0.0,0.0,89,0.00,FEW,OVC,0.00,WeatherDisplay:10.37,2013-11-03 11:45:00,
2013-11-03 06:50:00,21.6,18.9,30.21,NNW,340,0.0,0.0,89,0.00,FEW,OVC,0.00,WeatherDisplay:10.37,2013-11-03 11:50:00,
2013-11-03 06:55:00,21.6,18.8,30.21,NNW,340,0.0,0.0,89,0.00,FEW,OVC,0.00,WeatherDisplay:10.37,2013-11-03 11:55:00,
2013-11-03 07:00:00,21.5,18.8,30.21,NNW,340,0.0,0.0,89,0.00,FEW,OVC,0.00,WeatherDisplay:10.37,2013-11-03 12:00:00,
2013-11-03 07:05:00,21.5,18.8,30.22,NNW,340,0.0,0.0,89,0.00,FEW,OVC,0.00,WeatherDisplay:10.37,2013-11-03 12:05:00,
2013-11-03 07:10:00,21.4,18.7,30.22,NNW,340,0.0,0.0,89,0.00,FEW,OVC,0.00,WeatherDisplay:10.37,2013-11-03 12:10:00,
2013-11-03 07:15:00,21.4,18.7,30.23,NNW,340,0.0,0.0,89,0.00,FEW,OVC,0.00,WeatherDisplay:10.37,2013-11-03 12:15:00,
2013-11-03 07:20:00,21.5,18.8,30.23,NNW,340,0.0,0.0,89,0.00,FEW,OVC,0.00,WeatherDisplay:10.37,2013-11-03 12:20:00,
2013-11-03 07:25:00,21.5,18.8,30.24,NNW,340,0.0,0.0,89,0.00,FEW,OVC,0.00,WeatherDisplay:10.37,2013-11-03 12:25:00,
2013-11-03 07:30:00,21.5,18.8,30.24,NNW,340,0.0,0.0,89,0.00,FEW,OVC,0.00,WeatherDisplay:10.37,2013-11-03 12:30:00,
2013-11-03 07:35:00,21.6,19.1,30.24,NNW,340,0.0,0.0,90,0.00,FEW,OVC,0.00,WeatherDisplay:10.37,2013-11-03 12:35:00,
2013-11-03 07:40:00,21.6,19.1,30.24,NNW,340,0.0,0.0,90,0.00,FEW,OVC,0.00,WeatherDisplay:10.37,2013-11-03 12:40:00,
2013-11-03 07:45:00,21.8,19.3,30.24,NNW,340,0.0,2.0,90,0.00,FEW,OVC,0.00,WeatherDisplay:10.37,2013-11-03 12:45:00,
2013-11-03 07:50:00,21.9,19.4,30.25,NNW,340,0.0,0.0,90,0.00,FEW,OVC,0.00,WeatherDisplay:10.37,2013-11-03 12:50:00,
2013-11-03 07:55:00,22.1,19.9,30.25,NNW,340,0.0,2.0,91,0.00,FEW,OVC,0.00,WeatherDisplay:10.37,2013-11-03 12:55:00,
2013-11-03 08:00:00,22.3,20.1,30.25,NNW,337,0.0,2.0,91,0.00,FEW,OVC,0.00,WeatherDisplay:10.37,2013-11-03 13:00:00,
2013-11-03 08:05:00,22.6,20.1,30.25,NNW,333,0.0,2.0,90,0.00,FEW,OVC,0.00,WeatherDisplay:10.37,2013-11-03 13:05:00,
2013-11-03 08:10:00,22.9,19.9,30.26,North,353,0.0,3.0,88,0.00,FEW,OVC,0.00,WeatherDisplay:10.37,2013-11-03 13:10:00,
2013-11-03 08:15:00,23.4,20.1,30.26,North,357,0.0,2.0,87,0.00,FEW,OVC,0.00,WeatherDisplay:10.37,2013-11-03 13:15:00,
2013-11-03 08:20:00,23.8,19.9,30.26,NNW,342,0.0,3.0,85,0.00,FEW,OVC,0.00,WeatherDisplay:10.37,2013-11-03 13:20:00,
2013-11-03 08:25:00,24.4,19.7,30.27,NNW,336,1.0,5.0,82,0.00,FEW,OVC,0.00,WeatherDisplay:10.37,2013-11-03 13:25:00,
2013-11-03 08:30:00,25.0,20.0,30.27,North,5,2.0,5.0,81,0.00,FEW,OVC,0.00,WeatherDisplay:10.37,2013-11-03 13:30:00,
2013-11-03 08:35:00,26.1,19.9,30.27,North,10,1.0,5.0,77,0.00,FEW,OVC,0.00,WeatherDisplay:10.37,2013-11-03 13:35:00,
2013-11-03 08:40:00,27.7,20.2,30.27,NNE,13,1.0,5.0,73,0.00,FEW,OVC,0.00,WeatherDisplay:10.37,2013-11-03 13:40:00,
2013-11-03 08:45:00,29.5,19.9,30.27,NE,35,3.0,6.0,67,0.00,FEW,OVC,0.00,WeatherDisplay:10.37,2013-11-03 13:45:00,
2013-11-03 08:50:00,30.3,19.9,30.27,NNE,15,2.0,7.0,65,0.00,FEW,OVC,0.00,WeatherDisplay:10.37,2013-11-03 13:50:00,
2013-11-03 08:55:00,30.4,19.7,30.27,NNE,30,2.0,8.0,64,0.00,FEW,OVC,0.00,WeatherDisplay:10.37,2013-11-03 13:55:00,
2013-11-03 09:00:00,30.5,20.1,30.27,North,357,2.0,7.0,65,0.00,FEW,OVC,0.00,WeatherDisplay:10.37,2013-11-03 14:00:00,
2013-11-03 09:05:00,30.8,19.6,30.27,NNW,343,5.0,9.0,63,0.00,FEW,OVC,0.00,WeatherDisplay:10.37,2013-11-03 14:05:00,
2013-11-03 09:10:00,31.1,19.9,30.27,North,3,3.0,7.0,63,0.00,FEW,OVC,0.00,WeatherDisplay:10.37,2013-11-03 14:10:00,
2013-11-03 09:15:00,31.3,20.2,30.28,NNE,23,2.0,7.0,63,0.00,FEW,OVC,0.00,WeatherDisplay:10.37,2013-11-03 14:15:00,
2013-11-03 09:20:00,31.5,19.9,30.28,NNE,33,1.0,5.0,62,0.00,FEW,OVC,0.00,WeatherDisplay:10.37,2013-11-03 14:20:00,
2013-11-03 09:25:00,31.7,20.1,30.28,North,7,3.0,7.0,62,0.00,FEW,OVC,0.00,WeatherDisplay:10.37,2013-11-03 14:25:00,
2013-11-03 09:30:00,31.9,20.0,30.27,NNE,12,2.0,6.0,61,0.00,FEW,OVC,0.00,WeatherDisplay:10.37,2013-11-03 14:30:00,
2013-11-03 09:35:00,31.7,19.4,30.28,NNE,27,2.0,10.0,60,0.00,FEW,OVC,0.00,WeatherDisplay:10.37,2013-11-03 14:35:00,
2013-11-03 09:40:00,31.9,19.6,30.28,NNE,17,2.0,9.0,60,0.00,FEW,OVC,0.00,WeatherDisplay:10.37,2013-11-03 14:40:00,
2013-11-03 09:45:00,32.1,19.4,30.28,NNE,12,2.0,9.0,59,0.00,FEW,OVC,0.00,WeatherDisplay:10.37,2013-11-03 14:45:00,
2013-11-03 09:50:00,32.3,20.0,30.28,NNE,20,1.0,8.0,60,0.00,FEW,OVC,0.00,WeatherDisplay:10.37,2013-11-03 14:50:00,
2013-11-03 09:55:00,32.9,19.7,30.28,NE,34,2.0,6.0,58,0.00,FEW,OVC,0.00,WeatherDisplay:10.37,2013-11-03 14:55:00,
2013-11-03 10:00:00,32.6,19.5,30.28,NE,49,0.0,4.0,58,0.00,FEW,OVC,0.00,WeatherDisplay:10.37,2013-11-03 15:00:00,
2013-11-03 10:05:00,32.6,19.1,30.28,NE,54,0.0,5.0,57,0.00,FEW,OVC,0.00,WeatherDisplay:10.37,2013-11-03 15:05:00,
2013-11-03 10:10:00,32.9,18.5,30.28,NNE,12,3.0,9.0,55,0.00,FEW,OVC,0.00,WeatherDisplay:10.37,2013-11-03 15:10:00,
2013-11-03 10:20:00,33.5,18.6,30.29,NNE,14,2.0,5.0,54,0.00,FEW,OVC,0.00,WeatherDisplay:10.37,2013-11-03 15:20:00,
2013-11-03 10:25:00,33.7,18.8,30.29,NNE,29,1.0,7.0,54,0.00,FEW,OVC,0.00,WeatherDisplay:10.37,2013-11-03 15:25:00,
2013-11-03 10:30:00,33.7,18.8,30.29,NE,44,1.0,5.0,54,0.00,FEW,OVC,0.00,WeatherDisplay:10.37,2013-11-03 15:30:00,
2013-11-03 10:35:00,34.0,18.2,30.29,NNE,16,2.0,8.0,52,0.00,FEW,OVC,0.00,WeatherDisplay:10.37,2013-11-03 15:35:00,
2013-11-03 10:40:00,34.0,17.3,30.29,NNE,12,1.0,12.0,50,0.00,FEW,OVC,0.00,WeatherDisplay:10.37,2013-11-03 15:40:00,
2013-11-03 10:45:00,34.5,17.8,30.29,North,2,2.0,5.0,50,0.00,FEW,OVC,0.00,WeatherDisplay:10.37,2013-11-03 15:45:00,
2013-11-03 10:50:00,35.0,19.1,30.29,North,350,1.0,6.0,52,0.00,FEW,OVC,0.00,WeatherDisplay:10.37,2013-11-03 15:50:00,
2013-11-03 10:55:00,34.8,17.6,30.30,NNE,33,1.0,7.0,49,0.00,FEW,OVC,0.00,WeatherDisplay:10.37,2013-11-03 15:55:00,
2013-11-03 11:00:00,35.0,18.2,30.29,NNE,32,1.0,4.0,50,0.00,FEW,OVC,0.00,WeatherDisplay:10.37,2013-11-03 16:00:00,
2013-11-03 11:05:00,34.8,18.1,30.29,NNW,337,2.0,6.0,50,0.00,FEW,OVC,0.00,WeatherDisplay:10.37,2013-11-03 16:05:00,
2013-11-03 11:10:00,35.0,17.7,30.29,NNE,15,3.0,9.0,49,0.00,FEW,OVC,0.00,WeatherDisplay:10.37,2013-11-03 16:10:00,
2013-11-03 11:15:00,34.7,16.5,30.29,North,354,5.0,8.0,47,0.00,FEW,OVC,0.00,WeatherDisplay:10.37,2013-11-03 16:15:00,
2013-11-03 11:20:00,34.9,17.2,30.29,North,8,3.0,8.0,48,0.00,FEW,OVC,0.00,WeatherDisplay:10.37,2013-11-03 16:20:00,
2013-11-03 11:25:00,34.9,16.7,30.29,NNE,14,1.0,8.0,47,0.00,FEW,OVC,0.00,WeatherDisplay:10.37,2013-11-03 16:25:00,
2013-11-03 11:30:00,35.2,17.9,30.29,North,6,0.0,4.0,49,0.00,FEW,OVC,0.00,WeatherDisplay:10.37,2013-11-03 16:30:00,
2013-11-03 11:35:00,35.6,17.3,30.29,NNW,348,3.0,7.0,47,0.00,FEW,OVC,0.00,WeatherDisplay:10.37,2013-11-03 16:35:00,
2013-11-03 11:40:00,36.2,18.3,30.28,North,357,1.0,5.0,48,0.00,FEW,OVC,0.00,WeatherDisplay:10.37,2013-11-03 16:40:00,
2013-11-03 11:45:00,36.4,16.5,30.28,North,2,0.0,5.0,44,0.00,FEW,OVC,0.00,WeatherDisplay:10.37,2013-11-03 16:45:00,
2013-11-03 11:50:00,36.3,17.0,30.28,North,351,2.0,5.0,45,0.00,FEW,OVC,0.00,WeatherDisplay:10.37,2013-11-03 16:50:00,
2013-11-03 11:55:00,36.1,17.3,30.29,NNW,334,5.0,8.0,46,0.00,FEW,OVC,0.00,WeatherDisplay:10.37,2013-11-03 16:55:00,
2013-11-03 12:00:00,36.1,16.2,30.28,North,360,0.0,3.0,44,0.00,FEW,OVC,0.00,WeatherDisplay:10.37,2013-11-03 17:00:00,
2013-11-03 12:05:00,36.0,17.2,30.28,NNE,15,2.0,8.0,46,0.00,FEW,OVC,0.00,WeatherDisplay:10.37,2013-11-03 17:05:00,
2013-11-03 12:10:00,36.3,17.0,30.28,NNW,343,5.0,12.0,45,0.00,FEW,OVC,0.00,WeatherDisplay:10.37,2013-11-03 17:10:00,
2013-11-03 12:15:00,36.6,15.1,30.28,North,5,3.0,12.0,41,0.00,FEW,OVC,0.00,WeatherDisplay:10.37,2013-11-03 17:15:00,
2013-11-03 12:20:00,36.6,15.6,30.28,NNE,14,2.0,8.0,42,0.00,FEW,OVC,0.00,WeatherDisplay:10.37,2013-11-03 17:20:00,
2013-11-03 12:25:00,36.8,16.4,30.28,North,351,3.0,8.0,43,0.00,FEW,OVC,0.00,WeatherDisplay:10.37,2013-11-03 17:25:00,
2013-11-03 12:30:00,36.9,16.4,30.28,North,2,1.0,8.0,43,0.00,FEW,OVC,0.00,WeatherDisplay:10.37,2013-11-03 17:30:00,
2013-11-03 12:35:00,37.2,17.3,30.29,North,10,3.0,9.0,44,0.00,FEW,OVC,0.00,WeatherDisplay:10.37,2013-11-03 17:35:00,
2013-11-03 12:40:00,37.0,16.0,30.29,North,6,2.0,13.0,42,0.00,FEW,OVC,0.00,WeatherDisplay:10.37,2013-11-03 17:40:00,
2013-11-03 12:45:00,37.0,17.0,30.29,North,358,0.0,6.0,44,0.00,FEW,OVC,0.00,WeatherDisplay:10.37,2013-11-03 17:45:00,
2013-11-03 12:50:00,37.1,15.5,30.29,NNW,345,1.0,6.0,41,0.00,FEW,OVC,0.00,WeatherDisplay:10.37,2013-11-03 17:50:00,
2013-11-03 12:55:00,37.5,16.5,30.29,North,349,2.0,5.0,42,0.00,FEW,OVC,0.00,WeatherDisplay:10.37,2013-11-03 17:55:00,
2013-11-03 13:00:00,37.7,17.1,30.29,NNE,27,1.0,7.0,43,0.00,FEW,OVC,0.00,WeatherDisplay:10.37,2013-11-03 18:00:00,
2013-11-03 13:05:00,37.9,17.4,30.29,ENE,61,1.0,9.0,43,0.00,FEW,OVC,0.00,WeatherDisplay:10.37,2013-11-03 18:05:00,
2013-11-03 13:10:00,37.5,15.4,30.29,NE,36,1.0,9.0,40,0.00,FEW,OVC,0.00,WeatherDisplay:10.37,2013-11-03 18:10:00,
2013-11-03 13:15:00,37.3,15.7,30.29,NNE,14,2.0,7.0,41,0.00,FEW,OVC,0.00,WeatherDisplay:10.37,2013-11-03 18:15:00,
2013-11-03 13:20:00,37.8,17.8,30.29,North,8,2.0,6.0,44,0.00,FEW,OVC,0.00,WeatherDisplay:10.37,2013-11-03 18:20:00,
2013-11-03 13:25:00,38.1,16.4,30.29,North,9,5.0,9.0,41,0.00,FEW,OVC,0.00,WeatherDisplay:10.37,2013-11-03 18:25:00,
2013-11-03 13:30:00,37.6,16.0,30.29,North,6,5.0,9.0,41,0.00,FEW,OVC,0.00,WeatherDisplay:10.37,2013-11-03 18:30:00,
2013-11-03 13:35:00,37.0,15.5,30.30,North,359,2.0,8.0,41,0.00,FEW,OVC,0.00,WeatherDisplay:10.37,2013-11-03 18:35:00,
2013-11-03 13:40:00,37.2,15.6,30.30,NNE,19,0.0,3.0,41,0.00,FEW,OVC,0.00,WeatherDisplay:10.37,2013-11-03 18:40:00,
2013-11-03 13:45:00,37.4,16.4,30.30,NE,40,2.0,8.0,42,0.00,FEW,OVC,0.00,WeatherDisplay:10.37,2013-11-03 18:45:00,
2013-11-03 13:50:00,37.8,15.6,30.30,North,0,2.0,8.0,40,0.00,FEW,OVC,0.00,WeatherDisplay:10.37,2013-11-03 18:50:00,
2013-11-03 13:55:00,37.5,15.3,30.30,North,10,0.0,4.0,40,0.00,FEW,OVC,0.00,WeatherDisplay:10.37,2013-11-03 18:55:00,
2013-11-03 14:00:00,37.1,15.5,30.31,North,9,3.0,10.0,41,0.00,FEW,OVC,0.00,WeatherDisplay:10.37,2013-11-03 19:00:00,
2013-11-03 14:05:00,37.3,15.1,30.31,North,7,3.0,6.0,40,0.00,FEW,OVC,0.00,WeatherDisplay:10.37,2013-11-03 19:05:00,
2013-11-03 14:10:00,36.8,15.2,30.31,North,352,1.0,7.0,41,0.00,FEW,OVC,0.00,WeatherDisplay:10.37,2013-11-03 19:10:00,
2013-11-03 14:15:00,37.5,15.9,30.31,North,350,1.0,5.0,41,0.00,FEW,OVC,0.00,WeatherDisplay:10.37,2013-11-03 19:15:00,
2013-11-03 14:20:00,37.9,16.3,30.31,NNE,12,0.0,3.0,41,0.00,FEW,OVC,0.00,WeatherDisplay:10.37,2013-11-03 19:20:00,
2013-11-03 14:25:00,38.2,16.0,30.31,NNW,345,0.0,7.0,40,0.00,FEW,OVC,0.00,WeatherDisplay:10.37,2013-11-03 19:25:00,
2013-11-03 14:30:00,38.2,15.4,30.31,NE,34,2.0,7.0,39,0.00,FEW,OVC,0.00,WeatherDisplay:10.37,2013-11-03 19:30:00,
2013-11-03 14:35:00,38.6,15.7,30.31,NE,45,1.0,5.0,39,0.00,FEW,OVC,0.00,WeatherDisplay:10.37,2013-11-03 19:35:00,
2013-11-03 14:40:00,38.4,16.1,30.32,NNE,23,1.0,7.0,40,0.00,FEW,OVC,0.00,WeatherDisplay:10.37,2013-11-03 19:40:00,
2013-11-03 14:45:00,37.9,14.5,30.32,NNE,20,0.0,3.0,38,0.00,FEW,OVC,0.00,WeatherDisplay:10.37,2013-11-03 19:45:00,
2013-11-03 14:50:00,38.3,16.6,30.32,NNW,345,1.0,5.0,41,0.00,FEW,OVC,0.00,WeatherDisplay:10.37,2013-11-03 19:50:00,
2013-11-03 14:55:00,38.3,15.4,30.32,NNE,18,0.0,3.0,39,0.00,FEW,OVC,0.00,WeatherDisplay:10.37,2013-11-03 19:55:00,
2013-11-03 15:00:00,38.2,16.0,30.32,ENE,60,2.0,7.0,40,0.00,FEW,OVC,0.00,WeatherDisplay:10.37,2013-11-03 20:00:00,
2013-11-03 15:05:00,38.0,15.8,30.33,NE,43,3.0,7.0,40,0.00,FEW,OVC,0.00,WeatherDisplay:10.37,2013-11-03 20:05:00,
2013-11-03 15:10:00,37.8,15.0,30.33,NNW,344,2.0,5.0,39,0.00,FEW,OVC,0.00,WeatherDisplay:10.37,2013-11-03 20:10:00,
2013-11-03 15:15:00,37.6,14.8,30.33,NNW,347,1.0,6.0,39,0.00,FEW,OVC,0.00,WeatherDisplay:10.37,2013-11-03 20:15:00,
2013-11-03 15:20:00,37.2,14.5,30.33,NNW,343,2.0,7.0,39,0.00,FEW,OVC,0.00,WeatherDisplay:10.37,2013-11-03 20:20:00,
2013-11-03 15:25:00,36.9,14.8,30.34,NNW,342,1.0,5.0,40,0.00,FEW,OVC,0.00,WeatherDisplay:10.37,2013-11-03 20:25:00,
2013-11-03 15:30:00,36.9,14.8,30.34,North,359,1.0,5.0,40,0.00,FEW,OVC,0.00,WeatherDisplay:10.37,2013-11-03 20:30:00,
2013-11-03 15:35:00,36.9,14.8,30.34,NNW,348,3.0,9.0,40,0.00,FEW,OVC,0.00,WeatherDisplay:10.37,2013-11-03 20:35:00,
2013-11-03 15:45:00,36.7,15.2,30.34,NNW,335,2.0,8.0,41,0.00,FEW,OVC,0.00,WeatherDisplay:10.37,2013-11-03 20:45:00,
2013-11-03 15:50:00,36.7,14.6,30.34,NNW,339,2.0,10.0,40,0.00,FEW,OVC,0.00,WeatherDisplay:10.37,2013-11-03 20:50:00,
2013-11-03 15:55:00,36.5,15.0,30.34,North,1,2.0,6.0,41,0.00,FEW,OVC,0.00,WeatherDisplay:10.37,2013-11-03 20:55:00,
2013-11-03 16:00:00,36.3,14.8,30.34,North,6,1.0,6.0,41,0.00,FEW,OVC,0.00,WeatherDisplay:10.37,2013-11-03 21:00:00,
2013-11-03 16:05:00,36.1,14.6,30.34,North,2,2.0,6.0,41,0.00,FEW,OVC,0.00,WeatherDisplay:10.37,2013-11-03 21:05:00,
2013-11-03 16:10:00,36.0,15.1,30.35,North,358,0.0,6.0,42,0.00,FEW,OVC,0.00,WeatherDisplay:10.37,2013-11-03 21:10:00,
2013-11-03 16:15:00,35.8,15.5,30.35,NNW,337,1.0,6.0,43,0.00,FEW,OVC,0.00,WeatherDisplay:10.37,2013-11-03 21:15:00,
2013-11-03 16:20:00,35.6,15.8,30.35,NNW,343,0.0,6.0,44,0.00,FEW,OVC,0.00,WeatherDisplay:10.37,2013-11-03 21:20:00,
2013-11-03 16:25:00,35.2,15.5,30.36,North,350,1.0,4.0,44,0.00,FEW,OVC,0.00,WeatherDisplay:10.37,2013-11-03 21:25:00,
2013-11-03 16:30:00,35.2,15.4,30.36,North,349,1.0,6.0,44,0.00,FEW,OVC,0.00,WeatherDisplay:10.37,2013-11-03 21:30:00,
2013-11-03 16:35:00,34.9,15.7,30.36,North,359,0.0,5.0,45,0.00,FEW,OVC,0.00,WeatherDisplay:10.37,2013-11-03 21:35:00,
2013-11-03 16:39:00,34.7,14.9,30.36,North,5,0.0,4.0,44,0.00,FEW,OVC,0.00,WeatherDisplay:10.37,2013-11-03 21:39:00,
2013-11-03 16:45:00,34.3,15.6,30.36,North,2,0.0,1.0,46,0.00,FEW,OVC,0.00,WeatherDisplay:10.37,2013-11-03 21:45:00,
2013-11-03 16:49:00,33.9,15.7,30.37,North,5,0.0,1.0,47,0.00,FEW,OVC,0.00,WeatherDisplay:10.37,2013-11-03 21:49:00,
2013-11-03 16:55:00,33.4,15.8,30.37,North,5,0.0,2.0,48,0.00,FEW,OVC,0.00,WeatherDisplay:10.37,2013-11-03 21:55:00,
2013-11-03 17:00:00,33.1,15.5,30.37,North,1,0.0,0.0,48,0.00,FEW,OVC,0.00,WeatherDisplay:10.37,2013-11-03 22:00:00,
2013-11-03 17:04:00,32.8,15.7,30.37,North,360,0.0,0.0,49,0.00,FEW,OVC,0.00,WeatherDisplay:10.37,2013-11-03 22:04:00,
2013-11-03 17:10:00,32.3,16.6,30.38,North,360,0.0,0.0,52,0.00,FEW,OVC,0.00,WeatherDisplay:10.37,2013-11-03 22:10:00,
2013-11-03 17:15:00,31.4,17.1,30.38,North,360,0.0,0.0,55,0.00,FEW,OVC,0.00,WeatherDisplay:10.37,2013-11-03 22:15:00,
2013-11-03 17:19:00,30.5,17.9,30.38,North,360,0.0,0.0,59,0.00,FEW,OVC,0.00,WeatherDisplay:10.37,2013-11-03 22:19:00,
2013-11-03 17:25:00,30.0,17.7,30.39,North,360,0.0,0.0,60,0.00,FEW,OVC,0.00,WeatherDisplay:10.37,2013-11-03 22:25:00,
2013-11-03 17:30:00,29.6,18.9,30.39,North,360,0.0,0.0,64,0.00,FEW,OVC,0.00,WeatherDisplay:10.37,2013-11-03 22:30:00,
2013-11-03 17:34:00,29.4,18.7,30.39,North,360,0.0,0.0,64,0.00,FEW,OVC,0.00,WeatherDisplay:10.37,2013-11-03 22:34:00,
2013-11-03 17:39:00,29.3,18.6,30.39,North,360,0.0,0.0,64,0.00,FEW,OVC,0.00,WeatherDisplay:10.37,2013-11-03 22:39:00,
2013-11-03 17:45:00,29.2,18.5,30.39,North,360,0.0,0.0,64,0.00,FEW,OVC,0.00,WeatherDisplay:10.37,2013-11-03 22:45:00,
2013-11-03 17:50:00,29.1,18.8,30.39,North,360,0.0,0.0,65,0.00,FEW,OVC,0.00,WeatherDisplay:10.37,2013-11-03 22:50:00,
2013-11-03 17:54:00,29.0,18.7,30.40,North,360,0.0,1.0,65,0.00,FEW,OVC,0.00,WeatherDisplay:10.37,2013-11-03 22:54:00,
2013-11-03 17:59:00,28.8,18.5,30.40,North,360,0.0,0.0,65,0.00,FEW,OVC,0.00,WeatherDisplay:10.37,2013-11-03 22:59:00,
2013-11-03 18:04:00,28.7,18.4,30.40,North,360,0.0,0.0,65,0.00,FEW,OVC,0.00,WeatherDisplay:10.37,2013-11-03 23:04:00,
2013-11-03 18:10:00,28.6,18.7,30.40,North,360,0.0,0.0,66,0.00,FEW,OVC,0.00,WeatherDisplay:10.37,2013-11-03 23:10:00,
2013-11-03 18:15:00,28.4,18.5,30.41,North,360,0.0,0.0,66,0.00,FEW,OVC,0.00,WeatherDisplay:10.37,2013-11-03 23:15:00,
2013-11-03 18:20:00,28.3,18.4,30.41,North,360,0.0,0.0,66,0.00,FEW,OVC,0.00,WeatherDisplay:10.37,2013-11-03 23:20:00,
2013-11-03 18:24:00,28.2,18.3,30.41,North,360,0.0,0.0,66,0.00,FEW,OVC,0.00,WeatherDisplay:10.37,2013-11-03 23:24:00,
2013-11-03 18:29:00,28.0,18.1,30.41,North,360,0.0,0.0,66,0.00,FEW,OVC,0.00,WeatherDisplay:10.37,2013-11-03 23:29:00,
2013-11-03 18:34:00,27.9,18.4,30.41,North,360,0.0,0.0,67,0.00,FEW,OVC,0.00,WeatherDisplay:10.37,2013-11-03 23:34:00,
2013-11-03 18:39:00,27.8,18.6,30.42,North,360,0.0,0.0,68,0.00,FEW,OVC,0.00,WeatherDisplay:10.37,2013-11-03 23:39:00,
2013-11-03 18:44:00,27.7,18.8,30.42,North,360,0.0,0.0,69,0.00,FEW,OVC,0.00,WeatherDisplay:10.37,2013-11-03 23:44:00,
2013-11-03 18:50:00,27.5,18.6,30.42,North,360,0.0,0.0,69,0.00,FEW,OVC,0.00,WeatherDisplay:10.37,2013-11-03 23:50:00,
2013-11-03 18:54:00,27.4,18.6,30.43,North,360,0.0,0.0,69,0.00,FEW,OVC,0.00,WeatherDisplay:10.37,2013-11-03 23:54:00,
2013-11-03 18:59:00,27.2,18.4,30.43,North,360,0.0,0.0,69,0.00,FEW,OVC,0.00,WeatherDisplay:10.37,2013-11-03 23:59:00,
2013-11-03 19:04:00,27.1,18.3,30.43,North,360,0.0,0.0,69,0.00,FEW,OVC,0.00,WeatherDisplay:10.37,2013-11-04 00:04:00,
2013-11-03 19:09:00,27.0,18.8,30.43,North,360,0.0,0.0,71,0.00,FEW,OVC,0.00,WeatherDisplay:10.37,2013-11-04 00:09:00,
2013-11-03 19:14:00,26.9,18.7,30.43,North,360,0.0,0.0,71,0.00,FEW,OVC,0.00,WeatherDisplay:10.37,2013-11-04 00:14:00,
2013-11-03 19:19:00,26.8,19.0,30.44,North,360,0.0,0.0,72,0.00,FEW,OVC,0.00,WeatherDisplay:10.37,2013-11-04 00:19:00,
2013-11-03 19:24:00,26.6,19.1,30.44,North,360,0.0,0.0,73,0.00,FEW,OVC,0.00,WeatherDisplay:10.37,2013-11-04 00:24:00,
2013-11-03 19:29:00,26.5,18.7,30.44,North,360,0.0,0.0,72,0.00,FEW,OVC,0.00,WeatherDisplay:10.37,2013-11-04 00:29:00,
2013-11-03 19:34:00,26.4,18.6,30.44,North,360,0.0,0.0,72,0.00,FEW,OVC,0.00,WeatherDisplay:10.37,2013-11-04 00:34:00,
2013-11-03 19:39:00,26.4,18.9,30.44,North,360,0.0,0.0,73,0.00,FEW,OVC,0.00,WeatherDisplay:10.37,2013-11-04 00:39:00,
2013-11-03 19:44:00,26.3,18.8,30.45,North,360,0.0,0.0,73,0.00,FEW,OVC,0.00,WeatherDisplay:10.37,2013-11-04 00:44:00,
2013-11-03 19:49:00,26.2,18.7,30.45,North,360,0.0,0.0,73,0.00,FEW,OVC,0.00,WeatherDisplay:10.37,2013-11-04 00:49:00,
2013-11-03 19:55:00,26.1,18.9,30.45,North,360,0.0,0.0,74,0.00,FEW,OVC,0.00,WeatherDisplay:10.37,2013-11-04 00:55:00,
2013-11-03 20:04:00,25.8,19.0,30.46,North,360,0.0,0.0,75,0.00,FEW,OVC,0.00,WeatherDisplay:10.37,2013-11-04 01:04:00,
2013-11-03 20:09:00,25.7,19.2,30.46,North,360,0.0,0.0,76,0.00,FEW,OVC,0.00,WeatherDisplay:10.37,2013-11-04 01:09:00,
2013-11-03 20:14:00,25.6,19.4,30.46,North,360,0.0,0.0,77,0.00,SKC,OVC,0.00,WeatherDisplay:10.37,2013-11-04 01:14:00,
2013-11-03 20:19:00,25.5,19.3,30.46,North,360,0.0,0.0,77,0.00,SKC,OVC,0.00,WeatherDisplay:10.37,2013-11-04 01:19:00,
2013-11-03 20:24:00,25.3,19.1,30.46,North,360,0.0,0.0,77,0.00,SKC,OVC,0.00,WeatherDisplay:10.37,2013-11-04 01:24:00,
2013-11-03 20:29:00,25.2,19.0,30.46,North,360,0.0,0.0,77,0.00,SKC,OVC,0.00,WeatherDisplay:10.37,2013-11-04 01:29:00,
2013-11-03 20:34:00,25.1,19.2,30.46,North,360,0.0,0.0,78,0.00,SKC,OVC,0.00,WeatherDisplay:10.37,2013-11-04 01:34:00,
2013-11-03 20:39:00,24.9,19.3,30.47,North,360,0.0,0.0,79,0.00,SKC,OVC,0.00,WeatherDisplay:10.37,2013-11-04 01:39:00,
2013-11-03 20:44:00,24.8,19.2,30.47,North,360,0.0,0.0,79,0.00,SKC,OVC,0.00,WeatherDisplay:10.37,2013-11-04 01:44:00,
2013-11-03 20:49:00,24.6,19.3,30.47,North,360,0.0,0.0,80,0.00,SKC,OVC,0.00,WeatherDisplay:10.37,2013-11-04 01:49:00,
2013-11-03 20:54:00,24.4,19.4,30.47,North,360,0.0,0.0,81,0.00,SKC,OVC,0.00,WeatherDisplay:10.37,2013-11-04 01:54:00,
2013-11-03 20:59:00,24.3,19.6,30.47,North,360,0.0,0.0,82,0.00,SKC,OVC,0.00,WeatherDisplay:10.37,2013-11-04 01:59:00,
2013-11-03 21:04:00,24.4,19.7,30.48,North,360,0.0,0.0,82,0.00,SKC,OVC,0.00,WeatherDisplay:10.37,2013-11-04 02:04:00,
2013-11-03 21:09:00,24.4,20.0,30.48,North,360,0.0,0.0,83,0.00,SKC,OVC,0.00,WeatherDisplay:10.37,2013-11-04 02:09:00,
2013-11-03 21:14:00,24.5,20.1,30.48,North,360,0.0,0.0,83,0.00,SKC,OVC,0.00,WeatherDisplay:10.37,2013-11-04 02:14:00,
2013-11-03 21:19:00,24.4,19.9,30.48,North,360,0.0,0.0,83,0.00,SKC,OVC,0.00,WeatherDisplay:10.37,2013-11-04 02:19:00,
2013-11-03 21:24:00,24.3,19.9,30.48,North,360,0.0,0.0,83,0.00,SKC,OVC,0.00,WeatherDisplay:10.37,2013-11-04 02:24:00,
2013-11-03 21:29:00,24.2,19.8,30.49,North,360,0.0,0.0,83,0.00,SKC,OVC,0.00,WeatherDisplay:10.37,2013-11-04 02:29:00,
2013-11-03 21:34:00,24.1,19.7,30.49,North,360,0.0,0.0,83,0.00,SKC,OVC,0.00,WeatherDisplay:10.37,2013-11-04 02:34:00,
2013-11-03 21:39:00,24.0,19.6,30.49,North,360,0.0,0.0,83,0.00,SKC,OVC,0.00,WeatherDisplay:10.37,2013-11-04 02:39:00,
2013-11-03 21:44:00,23.9,19.8,30.50,North,360,0.0,0.0,84,0.00,SKC,OVC,0.00,WeatherDisplay:10.37,2013-11-04 02:44:00,
2013-11-03 21:49:00,23.9,19.8,30.49,North,360,0.0,0.0,84,0.00,SKC,OVC,0.00,WeatherDisplay:10.37,2013-11-04 02:49:00,
2013-11-03 21:54:00,23.7,19.3,30.49,North,360,0.0,0.0,83,0.00,SKC,OVC,0.00,WeatherDisplay:10.37,2013-11-04 02:54:00,
2013-11-03 21:59:00,23.6,19.2,30.50,North,360,0.0,0.0,83,0.00,SKC,OVC,0.00,WeatherDisplay:10.37,2013-11-04 02:59:00,
2013-11-03 22:04:00,23.5,18.8,30.50,North,360,0.0,0.0,82,0.00,SKC,OVC,0.00,WeatherDisplay:10.37,2013-11-04 03:04:00,
2013-11-03 22:09:00,23.4,18.7,30.50,North,360,0.0,0.0,82,0.00,SKC,OVC,0.00,WeatherDisplay:10.37,2013-11-04 03:09:00,
2013-11-03 22:14:00,23.3,18.9,30.50,North,360,0.0,0.0,83,0.00,SKC,OVC,0.00,WeatherDisplay:10.37,2013-11-04 03:14:00,
2013-11-03 22:19:00,23.2,18.8,30.50,North,360,0.0,0.0,83,0.00,SKC,OVC,0.00,WeatherDisplay:10.37,2013-11-04 03:19:00,
2013-11-03 22:24:00,23.2,19.1,30.50,North,360,0.0,0.0,84,0.00,SKC,OVC,0.00,WeatherDisplay:10.37,2013-11-04 03:24:00,
2013-11-03 22:29:00,23.2,19.1,30.50,North,360,0.0,0.0,84,0.00,SKC,OVC,0.00,WeatherDisplay:10.37,2013-11-04 03:29:00,
2013-11-03 22:34:00,23.1,19.0,30.51,North,360,0.0,0.0,84,0.00,SKC,OVC,0.00,WeatherDisplay:10.37,2013-11-04 03:34:00,
2013-11-03 22:39:00,23.0,19.2,30.51,North,360,0.0,0.0,85,0.00,SKC,OVC,0.00,WeatherDisplay:10.37,2013-11-04 03:39:00,
2013-11-03 22:44:00,23.0,19.2,30.51,North,360,0.0,0.0,85,0.00,SKC,OVC,0.00,WeatherDisplay:10.37,2013-11-04 03:44:00,
2013-11-03 22:49:00,23.0,18.9,30.51,North,360,0.0,0.0,84,0.00,SKC,OVC,0.00,WeatherDisplay:10.37,2013-11-04 03:49:00,
2013-11-03 22:54:00,23.0,19.2,30.51,North,360,0.0,0.0,85,0.00,SKC,OVC,0.00,WeatherDisplay:10.37,2013-11-04 03:54:00,
2013-11-03 22:59:00,23.1,19.3,30.51,North,360,0.0,0.0,85,0.00,SKC,OVC,0.00,WeatherDisplay:10.37,2013-11-04 03:59:00,
2013-11-03 23:04:00,23.1,19.3,30.51,North,360,0.0,0.0,85,0.00,SKC,OVC,0.00,WeatherDisplay:10.37,2013-11-04 04:04:00,
2013-11-03 23:09:00,23.0,19.2,30.51,North,360,0.0,0.0,85,0.00,SKC,OVC,0.00,WeatherDisplay:10.37,2013-11-04 04:09:00,
2013-11-03 23:14:00,23.0,19.1,30.52,North,360,0.0,0.0,85,0.00,SKC,OVC,0.00,WeatherDisplay:10.37,2013-11-04 04:14:00,
2013-11-03 23:19:00,22.9,19.1,30.52,North,360,0.0,0.0,85,0.00,SKC,OVC,0.00,WeatherDisplay:10.37,2013-11-04 04:19:00,
2013-11-03 23:24:00,22.9,19.1,30.52,North,360,0.0,0.0,85,0.00,SKC,OVC,0.00,WeatherDisplay:10.37,2013-11-04 04:24:00,
2013-11-03 23:29:00,22.8,19.0,30.52,North,360,0.0,0.0,85,0.00,SKC,OVC,0.00,WeatherDisplay:10.37,2013-11-04 04:29:00,
2013-11-03 23:34:00,22.7,18.9,30.52,North,360,0.0,0.0,85,0.00,SKC,OVC,0.00,WeatherDisplay:10.37,2013-11-04 04:34:00,
2013-11-03 23:39:00,22.5,19.0,30.53,North,360,0.0,0.0,86,0.00,SKC,OVC,0.00,WeatherDisplay:10.37,2013-11-04 04:39:00,
2013-11-03 23:44:00,22.5,18.9,30.53,North,360,1.0,2.0,86,0.00,SKC,OVC,0.00,WeatherDisplay:10.37,2013-11-04 04:44:00,
2013-11-03 23:49:00,22.6,19.3,30.53,North,360,0.0,2.0,87,0.00,SKC,OVC,0.00,WeatherDisplay:10.37,2013-11-04 04:49:00,
2013-11-03 23:54:00,22.5,19.2,30.54,North,360,0.0,2.0,87,0.00,SKC,OVC,0.00,WeatherDisplay:10.37,2013-11-04 04:54:00,
2013-11-03 23:59:00,22.5,18.9,30.54,North,356,0.0,2.0,86,0.00,SKC,OVC,0.00,WeatherDisplay:10.37,2013-11-04 04:59:00,